Temp
-18 -18 -17 -15 -15 -15 -15 -14 -13 -13 -12 -12 -12 -12 -11 -10 -12 -11 -10 -10 -10 -10 -10 -10 -9 -9 -9 -9 -10 -10 -10 -10 -10 -10 -10 -10 -10 -10 -10 -10 -10 -10 -10 -10 -10
-18 -18 -17 -16 -15 -16 -15 -14 -13 -13 -12 -12 -12 -12 -12 -12 -15 -11 -11 -10 -10 -10 -10 -10 -10 -9 -9 -10 -10 -10 -10 -10 -10 -10 -10 -10 -10 -10 -10 -10 -10 -10 -10 -10 -10
-18 -18 -17 -16 -16 -16 -16 -16 -14 -13 -12 -12 -12 -12 -13 -15 -13 -12 -11 -11 -11 -10 -10 -10 -10 -9 -10 -10 -10 -10 -10 -10 -10 -10 -10 -10 -10 -10 -10 -10 -10 -10 -10 -10 -10
-18 -19 -17 -16 -16 -16 -16 -16 -16 -14 -12 -12 -12 -13 -16 -16 -13 -11 -11 -11 -11 -11 -11 -10 -10 -9 -10 -10 -10 -10 -10 -10 -10 -10 -10 -10 -10 -10 -10 -10 -10 -10 -10 -10 -10
-18 -18 -17 -17 -16 -16 -16 -17 -17 -15 -16 -16 -14 -16 -15 -13 -12 -12 -11 -11 -11 -11 -11 -10 -10 -10 -10 -10 -10 -10 -10 -10 -10 -10 -10 -10 -10 -10 -10 -10 -10 -10 -10 -10 -10
-19 -18 -17 -17 -16 -16 -16 -16 -17 -16 -18 -17 -16 -15 -14 -13 -13 -12 -12 -11 -11 -11 -11 -11 -10 -11 -10 -10 -11 -10 -10 -10 -10 -10 -10 -10 -10 -10 -11 -10 -10 -10 -10 -10 -10
-19 -18 -18 -17 -17 -16 -17 -16 -17 -16 -18 -17 -16 -15 -14 -13 -13 -13 -12 -12 -12 -12 -11 -11 -11 -11 -11 -10 -10 -10 -10 -10 -10 -10 -10 -10 -11 -10 -11 -10 -10 -10 -10 -10 -10
-19 -19 -18 -18 -17 -17 -17 -17 -17 -17 -17 -16 -16 -15 -15 -14 -13 -13 -13 -12 -12 -12 -12 -11 -11 -11 -11 -11 -11 -10 -10 -10 -10 -10 -10 -10 -11 -10 -11 -11 -10 -10 -10 -10 -10
-19 -18 -18 -18 -17 -17 -18 -18 -17 -17 -17 -17 -16 -15 -14 -14 -13 -13 -13 -13 -12 -12 -12 -12 -11 -11 -11 -11 -11 -11 -10 -10 -10 -10 -10 -10 -10 -11 -10 -10 -11 -11 -10 -10 -10
-19 -19 -18 -18 -18 -17 -18 -18 -18 -17 -17 -17 -16 -15 -14 -14 -14 -14 -13 -13 -12 -12 -13 -12 -11 -11 -11 -11 -10 -10 -10 -10 -10 -11 -10 -10 -11 -10 -11 -10 -11 -11 -11 -10 -11
-18 -19 -18 -18 -18 -17 -18 -18 -17 -17 -17 -17 -16 -15 -15 -15 -14 -14 -13 -13 -13 -13 -13 -12 -12 -11 -11 -11 -11 -11 -11 -11 -11 -11 -10 -10 -10 -10 -10 -11 -11 -11 -11 -11 -11
-19 -19 -19 -18 -18 -18 -18 -17 -17 -17 -17 -17 -16 -16 -15 -15 -15 -14 -14 -13 -13 -13 -12 -12 -12 -13 -12 -12 -12 -11 -11 -11 -11 -10 -10 -10 -10 -10 -11 -11 -10 -10 -11 -11 -11
-19 -19 -19 -19 -18 -18 -17 -18 -18 -18 -17 -18 -17 -16 -16 -15 -15 -14 -14 -14 -14 -13 -13 -12 -13 -13 -12 -12 -12 -11 -11 -11 -11 -11 -10 -10 -10 -11 -11 -11 -11 -10 -10 -11 -11
-19 -19 -19 -18 -18 -18 -18 -18 -18 -18 -17 -17 -18 -17 -16 -15 -15 -15 -14 -14 -13 -13 -13 -13 -13 -13 -12 -12 -12 -12 -11 -11 -11 -11 -11 -11 -10 -11 -11 -11 -11 -11 -11 -11 -11
-19 -19 -19 -18 -18 -18 -18 -18 -19 -19 -18 -17 -18 -18 -17 -16 -15 -15 -15 -14 -14 -14 -13 -13 -13 -13 -13 -13 -12 -12 -12 -12 -11 -11 -11 -11 -11 -11 -11 -11 -11 -11 -11 -11 -11
-19 -19 -19 -19 -19 -19 -19 -19 -19 -19 -17 -17 -17 -16 -17 -17 -16 -15 -15 -15 -14 -14 -14 -14 -13 -13 -13 -13 -12 -12 -12 -12 -12 -11 -11 -11 -11 -11 -11 -11 -11 -11 -11 -11 -11
-19 -19 -19 -19 -19 -19 -19 -20 -19 -18 -17 -17 -16 -16 -16 -16 -16 -16 -15 -15 -14 -14 -14 -13 -13 -13 -13 -13 -13 -12 -12 -12 -12 -11 -11 -11 -11 -11 -11 -11 -11 -11 -11 -11 -11
-19 -19 -19 -19 -20 -20 -20 -20 -19 -17 -16 -16 -16 -16 -17 -16 -17 -16 -16 -15 -15 -15 -14 -14 -14 -13 -13 -13 -13 -13 -13 -13 -12 -12 -11 -12 -11 -11 -11 -11 -11 -11 -12 -12 -12
-20 -19 -19 -19 -19 -19 -20 -19 -18 -18 -16 -17 -17 -17 -17 -17 -17 -17 -16 -16 -16 -15 -15 -14 -14 -14 -14 -14 -14 -13 -13 -13 -13 -13 -12 -12 -11 -11 -11 -11 -11 -11 -11 -11 -12
-20 -19 -19 -19 -19 -19 -19 -18 -18 -18 -17 -17 -17 -17 -17 -17 -17 -17 -17 -16 -16 -16 -15 -15 -15 -14 -14 -15 -14 -14 -14 -14 -13 -13 -12 -12 -12 -12 -11 -11 -11 -12 -12 -12 -12
-20 -20 -19 -19 -19 -19 -18 -18 -18 -18 -18 -17 -17 -17 -17 -17 -17 -17 -16 -16 -16 -16 -16 -15 -15 -15 -15 -15 -15 -14 -14 -14 -14 -13 -13 -12 -12 -12 -12 -12 -12 -12 -12 -12 -12
-20 -20 -19 -19 -20 -19 -19 -18 -18 -18 -18 -18 -17 -17 -17 -17 -17 -18 -17 -17 -16 -17 -16 -16 -16 -16 -15 -15 -15 -15 -15 -15 -14 -13 -13 -13 -12 -12 -12 -12 -12 -12 -12 -12 -12
-20 -20 -20 -20 -20 -20 -19 -18 -18 -18 -18 -18 -18 -18 -18 -18 -17 -17 -17 -18 -17 -17 -17 -17 -16 -17 -16 -16 -15 -15 -14 -15 -14 -14 -14 -14 -13 -13 -13 -12 -12 -13 -13 -13 -13
-20 -20 -20 -20 -19 -20 -19 -19 -19 -18 -18 -18 -18 -18 -18 -18 -18 -18 -18 -17 -18 -18 -18 -18 -17 -17 -16 -16 -15 -15 -15 -15 -15 -15 -14 -14 -14 -14 -14 -13 -14 -14 -14 -13 -13
-20 -20 -20 -20 -20 -19 -20 -19 -19 -19 -19 -18 -18 -18 -19 -19 -18 -18 -17 -17 -17 -18 -18 -18 -17 -17 -17 -16 -16 -16 -15 -16 -15 -15 -15 -14 -15 -14 -14 -14 -14 -14 -14 -14 -14
-21 -21 -20 -20 -21 -20 -19 -20 -20 -20 -19 -19 -19 -19 -19 -19 -18 -18 -17 -17 -17 -17 -17 -17 -17 -17 -17 -16 -16 -16 -15 -15 -15 -15 -14 -14 -14 -14 -14 -14 -15 -15 -15 -15 -15
-23 -22 -21 -20 -20 -20 -19 -19 -19 -20 -19 -19 -19 -19 -19 -19 -18 -18 -18 -18 -18 -18 -18 -17 -17 -17 -17 -16 -16 -16 -15 -15 -15 -15 -15 -15 -14 -15 -16 -16 -16 -16 -16 -16 -16
Height
5657 5665 5674 5679 5685 5689 5696 5700 5705 5712 5721 5726 5735 5741 5747 5752 5758 5772 5780 5785 5794 5802 5808 5815 5821 5827 5834 5839 5844 5848 5852 5855 5859 5863 5866 5869 5871 5871 5873 5873 5875 5875 5876 5879 5880
5649 5659 5668 5672 5679 5684 5690 5696 5699 5706 5714 5723 5728 5735 5741 5747 5759 5769 5775 5783 5791 5799 5807 5813 5819 5825 5832 5837 5842 5847 5850 5853 5857 5861 5865 5867 5870 5872 5874 5873 5875 5875 5876 5878 5880
5644 5653 5663 5667 5673 5679 5685 5691 5694 5699 5709 5716 5722 5729 5736 5747 5760 5765 5775 5781 5789 5796 5803 5809 5813 5822 5829 5835 5840 5846 5849 5851 5856 5859 5863 5865 5869 5872 5873 5875 5875 5876 5877 5878 5879
5637 5645 5656 5662 5668 5674 5681 5686 5690 5693 5700 5709 5717 5724 5735 5745 5757 5765 5773 5781 5786 5794 5799 5808 5812 5821 5827 5833 5839 5844 5847 5850 5855 5858 5861 5864 5868 5871 5873 5875 5875 5877 5878 5878 5880
5631 5640 5649 5656 5665 5670 5677 5683 5686 5692 5696 5705 5714 5724 5734 5745 5752 5761 5770 5777 5786 5792 5797 5807 5812 5819 5825 5829 5836 5841 5845 5849 5852 5856 5859 5862 5866 5868 5872 5874 5875 5876 5879 5879 5879
5625 5633 5642 5651 5659 5665 5674 5680 5684 5690 5697 5704 5715 5723 5733 5742 5749 5757 5766 5774 5781 5789 5796 5803 5808 5816 5821 5826 5831 5838 5842 5846 5850 5854 5858 5861 5864 5867 5870 5872 5875 5876 5878 5879 5880
5617 5628 5637 5645 5653 5661 5669 5676 5681 5686 5695 5703 5713 5722 5729 5737 5746 5754 5763 5771 5778 5786 5793 5800 5805 5812 5818 5824 5828 5834 5840 5843 5849 5852 5857 5860 5863 5864 5867 5871 5874 5875 5877 5878 5879
5610 5622 5631 5639 5647 5655 5663 5670 5677 5683 5692 5702 5710 5719 5726 5733 5741 5750 5758 5767 5775 5781 5788 5795 5802 5808 5813 5820 5825 5830 5837 5840 5846 5849 5854 5858 5860 5863 5865 5868 5871 5872 5875 5876 5877
5605 5616 5625 5635 5642 5649 5658 5666 5673 5681 5690 5695 5706 5716 5723 5731 5739 5746 5753 5762 5770 5778 5784 5791 5797 5804 5810 5815 5821 5826 5834 5839 5842 5846 5850 5854 5857 5861 5864 5865 5868 5869 5871 5871 5874
5599 5611 5619 5628 5637 5645 5654 5660 5667 5677 5685 5691 5702 5712 5720 5729 5735 5742 5750 5758 5767 5773 5779 5786 5792 5799 5805 5811 5819 5826 5831 5835 5838 5843 5846 5850 5854 5856 5860 5863 5864 5865 5867 5868 5869
5593 5604 5614 5624 5632 5641 5650 5656 5665 5673 5681 5691 5701 5708 5716 5723 5730 5737 5745 5753 5760 5768 5775 5782 5790 5795 5806 5811 5816 5819 5823 5828 5833 5838 5842 5846 5850 5853 5856 5858 5860 5861 5862 5863 5864
5587 5599 5609 5618 5627 5637 5646 5654 5665 5675 5680 5685 5694 5705 5711 5719 5726 5731 5740 5748 5755 5764 5771 5778 5786 5793 5797 5803 5808 5813 5818 5824 5829 5833 5837 5841 5845 5848 5851 5853 5854 5855 5856 5860 5861
5581 5593 5602 5614 5623 5633 5642 5650 5657 5664 5672 5680 5686 5698 5707 5715 5722 5729 5737 5744 5752 5760 5767 5775 5784 5788 5792 5798 5804 5809 5815 5819 5823 5827 5831 5835 5839 5842 5844 5847 5848 5850 5851 5854 5856
5575 5585 5597 5607 5619 5628 5636 5643 5649 5656 5665 5673 5681 5691 5699 5707 5715 5723 5730 5740 5746 5754 5760 5767 5775 5781 5786 5793 5798 5804 5809 5812 5816 5821 5825 5828 5833 5836 5837 5839 5842 5844 5846 5847 5849
5567 5580 5592 5603 5613 5622 5631 5636 5643 5648 5654 5663 5670 5682 5693 5702 5712 5718 5725 5733 5741 5749 5757 5765 5769 5775 5781 5788 5792 5797 5801 5805 5809 5814 5818 5822 5826 5831 5831 5833 5835 5837 5839 5841 5843
5563 5573 5585 5596 5606 5614 5621 5628 5634 5637 5643 5657 5665 5674 5685 5696 5704 5713 5721 5728 5735 5742 5746 5754 5762 5768 5774 5780 5784 5790 5794 5798 5802 5806 5809 5815 5818 5825 5826 5826 5828 5829 5832 5834 5836
5559 5568 5578 5589 5599 5606 5612 5618 5624 5628 5639 5651 5662 5672 5681 5690 5696 5705 5714 5721 5728 5734 5740 5748 5754 5760 5766 5771 5776 5782 5787 5791 5795 5798 5803 5808 5811 5816 5818 5821 5821 5822 5825 5827 5828
5552 5562 5570 5580 5589 5598 5604 5611 5617 5628 5637 5648 5658 5667 5674 5683 5690 5699 5706 5713 5721 5730 5738 5744 5750 5756 5762 5766 5773 5777 5782 5786 5788 5791 5796 5798 5802 5806 5810 5814 5816 5817 5818 5819 5820
5543 5553 5564 5572 5581 5590 5595 5602 5613 5620 5634 5642 5651 5657 5664 5675 5685 5691 5699 5709 5717 5725 5731 5736 5741 5748 5755 5759 5763 5768 5772 5777 5780 5783 5786 5789 5795 5799 5803 5806 5808 5810 5811 5812 5813
5538 5547 5556 5563 5571 5580 5585 5599 5608 5616 5626 5633 5644 5652 5660 5670 5677 5684 5692 5702 5708 5716 5723 5728 5733 5739 5744 5749 5753 5759 5765 5768 5770 5774 5777 5782 5787 5791 5795 5797 5799 5802 5803 5804 5804
5530 5539 5548 5557 5561 5569 5578 5593 5600 5609 5616 5626 5635 5645 5654 5663 5670 5677 5687 5696 5701 5707 5713 5719 5726 5731 5734 5740 5747 5752 5755 5760 5765 5768 5771 5775 5780 5784 5785 5787 5789 5791 5792 5794 5796
5523 5531 5540 5550 5558 5557 5572 5583 5591 5598 5606 5618 5627 5638 5646 5655 5662 5668 5675 5687 5692 5698 5705 5710 5714 5718 5726 5732 5736 5741 5746 5750 5752 5760 5762 5765 5770 5772 5775 5777 5779 5781 5782 5782 5783
5514 5522 5529 5539 5547 5555 5564 5571 5580 5590 5599 5608 5618 5628 5637 5645 5651 5659 5669 5674 5677 5685 5692 5699 5701 5705 5711 5717 5723 5729 5737 5741 5746 5748 5752 5756 5764 5764 5766 5767 5768 5768 5768 5770 5771
5504 5512 5520 5528 5538 5547 5556 5564 5573 5582 5591 5599 5609 5618 5626 5632 5642 5651 5658 5665 5671 5676 5680 5683 5687 5693 5702 5712 5719 5724 5729 5733 5735 5736 5743 5748 5752 5754 5756 5755 5754 5755 5756 5757 5758
5492 5503 5512 5520 5530 5539 5548 5555 5564 5572 5581 5589 5598 5609 5615 5622 5631 5638 5647 5653 5659 5665 5669 5672 5679 5685 5691 5697 5703 5709 5714 5717 5720 5729 5728 5741 5739 5743 5744 5742 5741 5742 5744 5745 5746
5483 5493 5503 5511 5518 5528 5536 5546 5554 5562 5570 5579 5590 5596 5603 5612 5621 5629 5637 5641 5648 5653 5656 5661 5668 5676 5680 5684 5688 5694 5700 5706 5711 5714 5718 5725 5730 5735 5729 5728 5730 5730 5731 5732 5732
5472 5480 5488 5498 5507 5515 5528 5539 5547 5554 5561 5569 5578 5585 5593 5600 5607 5615 5621 5626 5633 5641 5645 5652 5658 5663 5667 5671 5674 5673 5691 5694 5700 5703 5708 5711 5722 5716 5715 5713 5716 5717 5717 5718 5719
Wind_Speed
47 38 42 41 39 37 38 35 37 41 50 43 36 45 51 55 51 51 53 54 49 46 44 40 36 33 31 30 28 27 28 25 23 20 16 14 14 13 12 14 12 12 10 8 7
50 41 42 40 38 38 36 34 36 46 51 42 48 44 39 46 46 49 55 53 51 47 43 40 37 35 33 32 30 28 28 26 24 21 18 14 13 13 12 14 12 13 12 10 8
53 42 42 39 39 39 36 32 32 45 57 50 53 42 46 47 46 52 55 53 50 48 45 43 41 38 36 33 30 29 28 25 24 22 20 17 14 13 13 12 11 11 11 11 9
51 44 42 42 41 40 36 32 29 39 53 51 57 48 46 48 50 52 49 49 50 47 46 43 41 39 37 33 30 29 27 26 23 21 20 19 16 14 12 12 10 7 8 8 8
54 45 47 43 43 42 38 35 31 40 38 40 46 48 50 48 52 53 53 50 49 46 44 43 41 38 37 34 33 30 28 26 24 22 20 19 17 14 11 11 10 8 5 5 6
52 47 48 44 44 45 40 41 37 40 36 44 43 45 46 49 52 52 51 51 48 47 44 45 41 40 37 36 35 31 29 27 26 24 21 19 16 13 12 10 8 8 7 6 5
54 51 50 45 44 46 42 44 44 43 38 47 41 43 44 51 53 54 52 51 50 49 45 43 42 42 37 37 35 32 31 28 26 24 22 20 18 17 13 10 8 7 7 7 8
55 51 52 46 46 44 44 46 46 46 39 50 41 45 47 48 51 51 51 50 51 48 47 46 45 42 40 38 35 34 31 29 26 25 23 20 19 17 17 13 11 10 10 10 9
57 53 52 49 47 45 48 50 48 46 43 49 42 44 50 51 50 52 51 50 50 50 50 49 46 45 42 40 37 36 31 28 27 24 23 21 20 18 17 15 14 13 14 14 14
59 56 52 50 49 47 49 53 51 48 45 49 44 43 46 47 48 48 49 51 52 51 49 49 49 45 43 42 37 32 30 31 29 27 25 22 22 20 19 18 18 17 17 18 18
62 57 54 51 50 48 53 55 53 50 48 49 49 39 43 45 46 47 48 48 47 49 46 48 48 44 38 38 36 36 35 34 31 28 26 25 24 23 23 20 21 22 22 21 21
63 60 61 52 51 50 53 54 50 49 46 49 52 44 43 43 45 47 48 47 47 46 48 46 43 39 42 40 39 39 37 34 32 30 29 27 26 26 25 23 26 26 25 25 25
66 63 60 54 53 52 50 52 53 55 53 47 47 47 46 44 44 44 45 43 44 43 44 42 38 41 41 40 39 38 36 34 33 33 32 30 27 27 27 26 27 28 28 27 27
69 64 60 56 56 53 50 50 58 56 55 58 51 49 45 45 44 43 45 45 46 44 43 42 41 42 41 40 39 37 37 36 36 36 34 31 29 27 27 28 26 25 27 28 28
71 65 60 58 55 54 52 53 56 56 57 57 61 57 54 46 45 45 44 45 44 43 44 42 40 41 40 37 38 38 39 38 37 37 36 32 31 27 28 29 27 27 27 28 28
70 72 62 60 57 53 53 52 55 59 63 59 63 62 61 52 50 45 46 47 46 45 41 42 42 42 40 40 41 40 39 39 39 39 38 34 34 29 29 30 30 30 29 28 29
64 71 70 65 57 55 54 53 54 61 58 56 59 59 63 59 56 52 46 45 45 45 48 47 45 42 42 42 43 42 40 42 40 40 40 35 36 33 31 30 30 31 31 29 28
53 59 72 68 60 59 55 56 60 64 56 57 54 55 57 63 54 55 51 48 45 45 44 44 43 42 43 42 40 38 39 38 40 41 41 39 40 38 33 31 29 30 31 30 30
54 60 66 71 70 66 61 62 65 64 61 59 56 56 60 56 56 52 61 50 47 43 39 41 41 42 41 40 39 39 38 39 41 40 42 43 39 38 36 34 33 32 33 32 32
53 60 63 63 67 63 65 64 68 65 63 60 58 58 59 61 61 58 56 60 51 49 46 44 43 42 40 38 39 37 39 40 41 41 41 40 38 37 38 37 37 35 34 34 34
52 55 58 59 70 65 66 60 64 66 63 60 56 58 57 59 60 61 63 57 58 50 49 50 50 45 45 44 42 41 42 42 41 42 39 39 40 39 39 39 39 39 39 38 38
55 59 54 57 54 57 66 60 63 63 68 63 62 56 56 55 54 56 61 58 58 54 54 53 53 53 51 50 46 44 45 43 43 42 42 42 44 45 44 44 45 45 44 45 45
65 60 57 57 57 58 61 63 62 58 61 64 64 61 60 58 57 55 54 55 63 59 59 57 57 59 62 61 60 57 51 50 48 48 47 48 45 47 48 49 49 50 50 50 50
66 65 68 66 67 50 61 64 64 61 55 60 60 58 61 61 60 57 57 57 57 54 55 57 59 66 61 54 56 58 52 58 57 53 51 47 46 48 49 51 51 53 54 55 56
61 66 64 66 70 71 55 61 65 62 63 58 56 56 57 63 60 59 61 60 59 60 63 59 56 56 57 57 57 55 54 54 55 57 61 59 55 53 53 54 57 58 59 59 59
56 57 68 60 61 69 70 62 56 55 56 59 52 49 51 58 55 64 64 57 60 62 59 58 63 62 62 60 59 60 62 60 58 59 59 57 56 57 62 63 60 58 58 58 58
50 51 58 65 66 66 65 60 61 54 49 54 55 54 48 47 53 54 54 59 65 61 57 59 58 57 62 65 68 70 64 63 61 62 62 63 57 58 57 58 57 56 57 57 57
Wind_Direction
210 213 215 206 206 208 209 210 209 202 205 204 216 208 210 211 187 185 181 184 183 181 181 180 176 174 172 169 166 161 157 155 153 155 158 155 149 143 143 127 122 108 107 114 104
208 205 211 204 203 202 205 211 209 200 197 201 207 208 226 204 180 185 184 185 181 183 182 178 178 174 173 171 166 164 162 161 161 159 159 161 155 153 152 135 127 116 105 100 111
204 201 211 203 201 198 202 207 207 199 203 197 211 211 205 177 186 188 187 184 183 182 181 180 179 177 174 171 167 170 168 167 167 163 160 161 163 158 157 146 132 124 113 107 106
205 194 203 204 200 197 198 202 204 196 196 198 204 196 175 177 185 187 188 186 182 184 180 184 180 178 176 171 171 178 174 170 172 166 163 162 163 160 157 156 147 135 126 123 113
209 196 196 204 198 195 196 197 202 188 179 175 184 175 181 183 183 186 185 187 187 184 182 186 182 181 180 173 177 181 178 174 172 172 172 167 167 159 161 164 165 158 165 147 146
196 194 196 203 197 194 196 194 194 184 181 174 180 181 182 186 185 189 187 187 186 187 187 187 184 186 183 182 183 184 182 180 179 178 180 178 173 171 180 178 172 166 186 190 187
196 194 195 202 198 195 194 192 190 187 180 177 181 185 187 185 187 186 188 188 188 187 188 189 189 190 186 188 186 189 188 186 187 186 187 190 186 185 193 197 199 196 204 206 218
197 192 194 201 198 196 194 192 194 179 182 188 183 189 192 186 187 189 188 189 191 191 190 191 194 193 193 194 192 194 193 191 193 193 194 198 203 194 204 204 210 216 225 229 226
189 193 194 201 199 196 196 193 192 186 189 195 187 186 191 190 190 190 191 191 192 195 194 195 195 196 198 198 199 197 194 198 202 202 204 206 216 213 211 219 221 220 235 238 241
194 195 198 201 200 195 197 199 192 187 192 187 188 189 189 191 191 193 193 194 196 197 196 197 199 198 200 202 202 201 199 205 209 210 213 217 221 226 227 223 231 233 234 242 247
194 195 199 200 200 197 199 203 191 190 188 193 188 192 192 191 192 193 196 197 198 200 202 202 202 200 205 208 207 206 208 211 214 219 219 224 231 233 238 239 239 240 241 243 248
192 198 200 200 201 200 200 204 189 195 192 197 192 194 197 196 195 194 196 198 200 204 204 202 205 205 207 209 211 211 215 217 219 224 227 229 234 243 243 243 247 248 244 245 249
193 198 198 200 202 201 198 200 199 199 194 192 194 194 195 194 196 195 198 200 202 206 208 208 208 211 210 213 216 217 220 223 228 230 233 235 236 242 247 244 247 251 253 249 250
192 195 199 201 201 201 199 201 207 209 203 192 193 197 195 198 198 195 195 201 203 205 206 207 209 213 214 217 220 222 224 228 231 234 237 237 236 240 246 249 249 249 252 254 253
196 196 200 201 202 202 202 197 204 213 210 198 193 197 194 200 196 198 198 200 201 205 209 209 210 213 217 219 222 223 226 229 231 237 237 238 242 235 245 252 253 254 253 252 251
202 195 198 202 205 202 203 202 205 214 217 207 201 197 195 197 199 201 204 202 202 204 205 207 209 213 215 218 221 223 226 229 232 235 239 239 245 239 241 250 256 256 255 254 255
208 203 201 201 205 205 205 205 206 215 215 210 205 202 199 198 198 203 204 205 208 208 209 210 211 213 216 220 223 225 227 231 234 237 243 242 244 246 241 242 249 255 259 259 256
208 208 204 203 207 206 207 208 213 215 214 216 213 208 204 203 209 208 208 209 209 212 214 217 217 218 222 224 228 232 234 237 240 239 242 243 241 245 247 247 245 250 254 257 259
212 211 209 211 209 212 211 211 215 218 215 217 215 213 205 204 210 215 210 215 217 216 220 222 222 224 226 228 229 232 235 239 241 242 242 244 244 248 249 253 251 251 254 257 258
203 207 210 210 214 214 212 215 217 218 220 219 220 216 214 209 210 213 214 213 216 221 225 226 227 226 228 230 233 234 236 239 241 244 244 247 249 253 253 253 255 256 255 256 258
199 200 206 215 216 218 218 220 219 220 219 221 223 220 219 219 219 220 222 217 219 220 226 231 230 229 231 235 239 239 240 243 246 247 249 252 252 252 256 257 259 262 266 264 263
200 202 200 206 196 211 221 222 224 221 221 220 222 224 226 228 226 228 226 227 222 225 227 234 237 238 239 243 245 244 244 246 247 247 250 251 251 253 255 259 263 266 268 269 271
195 206 202 204 201 212 219 223 223 222 226 224 222 224 226 227 229 227 229 231 230 231 231 231 234 237 237 238 241 243 244 247 247 248 248 252 254 260 263 265 268 270 272 272 273
198 203 203 199 205 206 210 220 221 224 227 226 224 223 226 227 229 228 231 231 231 234 237 239 240 239 241 248 248 245 250 247 249 253 253 255 260 262 266 268 270 271 272 273 274
199 200 200 207 212 209 209 214 219 223 225 223 224 227 228 226 226 229 228 230 232 236 238 238 240 245 247 247 249 248 249 248 249 252 256 251 260 263 265 264 264 266 269 271 274
220 213 206 205 205 208 211 211 212 221 219 221 222 225 226 229 229 230 231 230 234 235 235 237 240 244 245 246 247 246 245 248 251 253 256 258 258 260 262 265 268 270 271 272 273
230 224 221 211 209 209 211 216 215 211 216 217 222 224 229 229 230 230 231 231 233 236 237 239 240 241 242 244 245 246 248 250 252 253 256 258 261 260 261 262 263 265 267 270 272